Date String (YYYY-MM-DD hh:mm:ss) UTC,Instrument flags,Ambient pressure (hPa),Sample flow (lpm),Bypass flow (lpm),Sample temperature (°C),Ambient temperature (°C),ASC tube jacket temperature (°C),LED temperature (°C),Box temperature (°C),Sample RH (%),Span deviation,Mass concentration (μg/m³),Mass concentration (μg/m³),Mass concentration (μg/m³)
DateTimeUTC,F1_M11,P_M11,Q1_M11,Q2_M11,T1_M11,T2_M11,T3_M11,T4_M11,T5_M11,U1_M11,ZSPAN_M11,X0_M11,X2_M11,X1_M11
2022-02-02 00:00:00,,0821.9,4.99,0.00,22.3,21.6,00.0,31.4,24.1,12.2,0000.0,0005.13,0002.12,0001.64
2022-02-02 00:01:00,,0821.9,5.02,0.00,22.3,21.6,00.0,31.4,24.1,12.1,0000.0,0005.26,0002.16,0001.65
2022-02-02 00:02:00,,0822.0,4.98,0.00,22.3,21.5,00.0,31.3,24.0,12.2,0000.0,0005.28,0002.14,0001.65
2022-02-02 00:03:00,,0822.0,5.01,0.00,22.3,21.5,00.0,31.3,24.0,12.2,0000.0,0005.31,0002.14,0001.65
2022-02-02 00:04:00,,0822.0,4.99,0.00,22.3,21.5,00.0,31.3,24.0,12.1,0000.0,0005.34,0002.14,0001.66
2022-02-02 00:05:00,,0822.0,5.00,0.00,22.3,21.5,00.0,31.3,24.0,12.1,0000.0,0005.74,0002.16,0001.67
2022-02-02 00:06:00,,0822.0,5.02,0.00,22.3,21.5,00.0,31.3,24.0,12.1,0000.0,0005.78,0002.19,0001.67
2022-02-02 00:07:00,,0822.0,5.00,0.00,22.3,21.5,00.0,31.3,24.0,12.1,0000.0,0005.70,0002.16,0001.66
2022-02-02 00:08:00,,0822.0,5.01,0.00,22.2,21.4,00.0,31.3,24.0,12.1,0000.0,0005.82,0002.17,0001.67
2022-02-02 00:09:00,,0822.0,4.98,0.00,22.2,21.4,00.0,31.3,23.9,12.1,0000.0,0005.88,0002.17,0001.67
2022-02-02 00:10:00,,0822.0,5.02,0.00,22.2,21.4,00.0,31.3,23.9,12.1,0000.0,0004.87,0002.11,0001.67
2022-02-02 00:11:00,,0821.9,4.99,0.00,22.2,21.4,00.0,31.3,23.9,12.1,0000.0,0003.91,0002.07,0001.67
2022-02-02 00:12:00,,0821.9,5.01,0.00,22.2,21.4,00.0,31.2,23.9,12.1,0000.0,0003.83,0002.04,0001.66
2022-02-02 00:13:00,,0821.9,4.99,0.00,22.2,21.7,00.0,31.2,23.9,12.1,0000.0,0003.78,0002.04,0001.66
2022-02-02 00:14:00,,0822.0,4.99,0.00,22.3,22.4,00.0,31.3,24.1,12.1,0000.0,0003.62,0002.02,0001.66
2022-02-02 00:15:00,,0822.1,5.00,0.00,22.4,23.0,00.0,31.3,24.3,12.0,0000.0,0003.71,0002.05,0001.65
2022-02-02 00:16:00,,0822.1,5.01,0.00,22.5,22.9,00.0,31.3,24.4,11.9,0000.0,0003.55,0002.07,0001.65
2022-02-02 00:17:00,,0822.1,5.00,0.00,22.5,22.7,00.0,31.4,24.4,11.9,0000.0,0003.51,0002.06,0001.66
2022-02-02 00:18:00,,0822.1,5.01,0.00,22.5,22.5,00.0,31.4,24.4,11.9,0000.0,0003.51,0002.09,0001.67
2022-02-02 00:19:00,,0822.1,5.00,0.00,22.5,22.3,00.0,31.4,24.3,11.9,0000.0,0003.39,0002.08,0001.69
2022-02-02 00:20:00,,0822.1,4.99,0.00,22.5,22.2,00.0,31.4,24.3,11.9,0000.0,0003.40,0002.09,0001.69
2022-02-02 00:21:00,,0822.1,4.99,0.00,22.5,22.1,00.0,31.4,24.3,11.9,0000.0,0003.41,0002.09,0001.70
2022-02-02 00:22:00,,0822.1,5.00,0.00,22.5,22.0,00.0,31.4,24.3,11.9,0000.0,0003.41,0002.09,0001.71
2022-02-02 00:23:00,,0822.1,4.99,0.00,22.5,21.9,00.0,31.4,24.2,12.0,0000.0,0003.38,0002.09,0001.71
2022-02-02 00:24:00,,0822.1,5.01,0.00,22.5,21.9,00.0,31.4,24.2,12.0,0000.0,0003.34,0002.08,0001.71
2022-02-02 00:25:00,,0822.1,4.99,0.00,22.4,21.8,00.0,31.4,24.2,12.0,0000.0,0003.41,0002.11,0001.72
2022-02-02 00:26:00,,0822.1,5.02,0.00,22.4,21.8,00.0,31.4,24.2,12.0,0000.0,0003.51,0002.12,0001.72
2022-02-02 00:27:00,,0822.1,4.99,0.00,22.4,21.7,00.0,31.4,24.2,12.0,0000.0,0003.44,0002.13,0001.73
2022-02-02 00:28:00,,0822.2,4.99,0.00,22.4,21.7,00.0,31.4,24.2,12.0,0000.0,0003.45,0002.13,0001.73
2022-02-02 00:29:00,,0822.3,5.02,0.00,22.4,21.7,00.0,31.4,24.1,12.0,0000.0,0003.53,0002.12,0001.71
2022-02-02 00:30:00,,0822.3,4.98,0.00,22.4,21.7,00.0,31.4,24.1,12.0,0000.0,0003.49,0002.10,0001.70
2022-02-02 00:31:00,,0822.3,5.02,0.00,22.4,21.7,00.0,31.4,24.1,12.0,0000.0,0003.32,0002.06,0001.69
2022-02-02 00:32:00,,0822.4,4.99,0.00,22.4,21.6,00.0,31.4,24.1,12.0,0000.0,0003.43,0002.06,0001.69
2022-02-02 00:33:00,,0822.3,5.01,0.00,22.3,21.6,00.0,31.4,24.1,12.1,0000.0,0003.51,0002.04,0001.67
2022-02-02 00:34:00,,0822.3,5.01,0.00,22.3,21.6,00.0,31.4,24.1,12.1,0000.0,0003.56,0002.06,0001.67
2022-02-02 00:35:00,,0822.3,5.00,0.00,22.3,21.6,00.0,31.3,24.1,12.1,0000.0,0003.53,0002.03,0001.66
2022-02-02 00:36:00,,0822.3,4.99,0.00,22.3,21.5,00.0,31.3,24.1,12.1,0000.0,0003.47,0002.02,0001.66
2022-02-02 00:37:00,,0822.3,5.01,0.00,22.3,21.5,00.0,31.3,24.0,12.1,0000.0,0003.34,0002.01,0001.66
2022-02-02 00:38:00,,0822.3,5.00,0.00,22.3,21.5,00.0,31.3,24.0,12.1,0000.0,0003.31,0002.02,0001.66
2022-02-02 00:39:00,,0822.3,5.01,0.00,22.3,21.5,00.0,31.3,24.0,12.1,0000.0,0003.21,0002.00,0001.65
2022-02-02 00:40:00,,0822.3,5.00,0.00,22.3,21.5,00.0,31.3,24.0,12.1,0000.0,0003.19,0001.99,0001.65
2022-02-02 00:41:00,,0822.3,5.00,0.00,22.3,21.4,00.0,31.3,24.0,12.1,0000.0,0003.29,0002.00,0001.65
2022-02-02 00:42:00,,0822.3,5.01,0.00,22.2,21.4,00.0,31.3,24.0,12.1,0000.0,0003.42,0002.02,0001.63
2022-02-02 00:43:00,,0822.3,4.99,0.00,22.2,21.4,00.0,31.3,24.0,12.1,0000.0,0003.21,0002.01,0001.64
2022-02-02 00:44:00,,0822.3,5.00,0.00,22.2,21.5,00.0,31.3,24.0,12.1,0000.0,0003.07,0002.01,0001.63
2022-02-02 00:45:00,,0822.3,4.99,0.00,22.3,22.1,00.0,31.3,24.1,12.1,0000.0,0003.07,0002.00,0001.64
2022-02-02 00:46:00,,0822.3,5.00,0.00,22.4,22.9,00.0,31.4,24.4,12.0,0000.0,0003.20,0002.04,0001.63
2022-02-02 00:47:00,,0822.4,5.01,0.00,22.6,23.2,00.0,31.4,24.5,11.9,0000.0,0003.18,0002.02,0001.63
2022-02-02 00:48:00,,0822.3,4.99,0.00,22.6,22.9,00.0,31.4,24.6,11.9,0000.0,0003.26,0002.01,0001.63
2022-02-02 00:49:00,,0822.3,5.00,0.00,22.6,22.7,00.0,31.4,24.5,11.9,0000.0,0003.39,0002.02,0001.62
2022-02-02 00:50:00,,0822.3,5.02,0.00,22.6,22.6,00.0,31.4,24.5,11.9,0000.0,0003.43,0002.01,0001.62
2022-02-02 00:51:00,,0822.4,4.99,0.00,22.6,22.4,00.0,31.4,24.5,11.9,0000.0,0003.50,0002.02,0001.62
2022-02-02 00:52:00,,0822.3,4.98,0.00,22.6,22.2,00.0,31.5,24.4,11.9,0000.0,0003.62,0002.04,0001.63
2022-02-02 00:53:00,,0822.3,5.01,0.00,22.6,22.1,00.0,31.5,24.4,11.9,0000.0,0003.58,0002.04,0001.63
2022-02-02 00:54:00,,0822.4,4.99,0.00,22.6,22.1,00.0,31.5,24.3,11.9,0000.0,0003.78,0002.07,0001.63
2022-02-02 00:55:00,,0822.4,5.02,0.00,22.6,22.0,00.0,31.5,24.3,11.9,0000.0,0003.88,0002.09,0001.62
2022-02-02 00:56:00,,0822.5,4.98,0.00,22.5,21.9,00.0,31.5,24.3,11.9,0000.0,0003.85,0002.07,0001.62
2022-02-02 00:57:00,,0822.6,5.01,0.00,22.5,21.9,00.0,31.5,24.3,11.9,0000.0,0003.75,0002.03,0001.61
2022-02-02 00:58:00,,0822.5,4.99,0.00,22.5,21.8,00.0,31.5,24.3,11.9,0000.0,0003.82,0002.05,0001.61
2022-02-02 00:59:00,,0822.5,5.02,0.00,22.5,21.8,00.0,31.4,24.2,11.9,0000.0,0004.02,0002.07,0001.61
